TimePDT,TemperatureF,Dew PointF,Humidity,Sea Level PressureIn,VisibilityMPH,Wind Direction,Wind SpeedMPH,Gust SpeedMPH,PrecipitationIn,Events,Conditions,WindDirDegrees,DateUTC
12:53 AM,70.0,59.0,68,29.98,10.0,North,5.8,-,N/A,,Clear,10,2013-08-30 07:53:00
1:53 AM,68.0,59.0,73,29.97,10.0,North,4.6,-,N/A,,Clear,10,2013-08-30 08:53:00
2:53 AM,68.0,59.0,73,29.96,10.0,North,3.5,-,N/A,,Clear,360,2013-08-30 09:53:00
3:53 AM,66.9,57.9,73,29.96,10.0,Calm,Calm,-,N/A,,Clear,0,2013-08-30 10:53:00
4:53 AM,68.0,57.9,70,29.96,10.0,NNW,6.9,-,N/A,,Clear,340,2013-08-30 11:53:00
5:53 AM,66.0,59.0,78,29.98,10.0,North,4.6,-,N/A,,Clear,10,2013-08-30 12:53:00
6:53 AM,66.0,60.1,81,29.99,10.0,North,5.8,-,N/A,,Clear,360,2013-08-30 13:53:00
7:53 AM,69.1,60.1,73,30.00,10.0,North,6.9,-,N/A,,Clear,350,2013-08-30 14:53:00
8:53 AM,73.9,60.1,62,30.00,10.0,NNW,6.9,-,N/A,,Clear,340,2013-08-30 15:53:00
9:53 AM,81.0,57.9,45,30.00,10.0,NW,8.1,-,N/A,,Clear,320,2013-08-30 16:53:00
10:53 AM,82.9,57.9,42,30.00,10.0,NW,10.4,-,N/A,,Clear,320,2013-08-30 17:53:00
11:33 AM,84.2,57.2,40,30.00,9.0,NW,8.1,-,N/A,,Partly Cloudy,310,2013-08-30 18:33:00
11:53 AM,86.0,57.0,37,29.99,10.0,NW,5.8,-,N/A,,Clear,320,2013-08-30 18:53:00
12:53 PM,91.0,54.0,28,29.96,10.0,WNW,6.9,-,N/A,,Clear,300,2013-08-30 19:53:00
1:53 PM,93.0,51.1,24,29.94,10.0,NNW,9.2,-,N/A,,Clear,340,2013-08-30 20:53:00
2:53 PM,93.9,48.9,21,29.92,10.0,WNW,6.9,-,N/A,,Clear,300,2013-08-30 21:53:00
3:53 PM,97.0,44.1,16,29.90,10.0,NNW,11.5,19.6,N/A,,Clear,330,2013-08-30 22:53:00
4:53 PM,97.0,44.1,16,29.88,10.0,NNW,12.7,-,N/A,,Clear,340,2013-08-30 23:53:00
5:53 PM,96.1,46.9,19,29.86,10.0,NNW,10.4,-,N/A,,Clear,330,2013-08-31 00:53:00
6:53 PM,93.9,50.0,22,29.85,10.0,NNW,6.9,-,N/A,,Clear,330,2013-08-31 01:53:00
7:53 PM,90.0,54.0,29,29.86,10.0,NNW,10.4,-,N/A,,Clear,330,2013-08-31 02:53:00
8:53 PM,84.9,53.1,33,29.88,10.0,NW,9.2,-,N/A,,Clear,320,2013-08-31 03:53:00
9:53 PM,82.0,57.0,42,29.89,10.0,NNW,9.2,-,N/A,,Clear,330,2013-08-31 04:53:00
10:53 PM,79.0,55.0,44,29.89,10.0,NW,6.9,-,N/A,,Clear,320,2013-08-31 05:53:00
11:53 PM,77.0,55.0,47,29.91,10.0,North,4.6,-,N/A,,Clear,360,2013-08-31 06:53:00